Location: Adrasan
(36.3319°N, 30.4314°E)
Time: 03:27:38
(UTC+00:00)

COSMO-SKYMED 1 - Pass Details

Date: 19 October 2025
Orbit: 580 x 582 km, 97.9° (Epoch: 13 November)

Event Time Altitude Azimuth Distance (km) Brightness Sun altitude
Rises 02:56:49 0° 149° (SSE) 2,797 6.4 -15.2°
Reaches altitude 10° 02:59:03 10° 141° (SE) 1,901 5.6 -14.8°
Maximum altitude 03:02:53 38° 73° (ENE) 899 4.0 -14.0°
Drops below altitude 10° 03:06:43 10° 5° (N) 1,911 5.1 -13.3°
Sets 03:08:59 0° 357° (N) 2,814 5.9 -12.8°
